TimeEST,TemperatureF,Dew PointF,Humidity,Sea Level PressureIn,VisibilityMPH,Wind Direction,Wind SpeedMPH,Gust SpeedMPH,PrecipitationIn,Events,Conditions,WindDirDegrees,DateUTC
12:03 AM,12.2,8.6,85,30.43,10.0,Calm,Calm,-,N/A,,Clear,0,2013-01-27 05:03:00
12:23 AM,12.2,10.4,92,30.45,10.0,Calm,Calm,-,N/A,,Clear,0,2013-01-27 05:23:00
12:44 AM,12.2,8.6,85,30.44,7.0,Calm,Calm,-,N/A,,Clear,0,2013-01-27 05:44:00
1:03 AM,10.4,8.6,92,30.44,7.0,Calm,Calm,-,N/A,,Clear,0,2013-01-27 06:03:00
1:23 AM,10.4,6.8,85,30.44,5.0,Calm,Calm,-,N/A,,Clear,0,2013-01-27 06:23:00
1:44 AM,8.6,5.0,85,30.44,7.0,Calm,Calm,-,N/A,,Clear,0,2013-01-27 06:44:00
2:03 AM,10.4,8.6,92,30.44,7.0,Calm,Calm,-,N/A,,Clear,0,2013-01-27 07:03:00
2:23 AM,10.4,8.6,92,30.44,7.0,Calm,Calm,-,N/A,,Clear,0,2013-01-27 07:23:00
2:44 AM,12.2,10.4,92,30.45,10.0,Calm,Calm,-,N/A,,Clear,0,2013-01-27 07:44:00
3:03 AM,10.4,8.6,92,30.46,10.0,Calm,Calm,-,N/A,,Clear,0,2013-01-27 08:03:00
3:23 AM,12.2,10.4,92,30.45,10.0,Calm,Calm,-,N/A,,Clear,0,2013-01-27 08:23:00
3:44 AM,12.2,8.6,85,30.44,10.0,Calm,Calm,-,N/A,,Clear,0,2013-01-27 08:44:00
4:03 AM,10.4,8.6,92,30.44,10.0,East,4.6,-,N/A,,Clear,80,2013-01-27 09:03:00
4:23 AM,12.2,10.4,92,30.44,10.0,Calm,Calm,-,N/A,,Clear,0,2013-01-27 09:23:00
4:44 AM,10.4,8.6,92,30.44,10.0,Calm,Calm,-,N/A,,Clear,0,2013-01-27 09:44:00
5:03 AM,10.4,6.8,85,30.44,7.0,Calm,Calm,-,N/A,,Clear,0,2013-01-27 10:03:00
5:23 AM,8.6,5.0,85,30.44,4.0,East,3.5,-,N/A,,Scattered Clouds,90,2013-01-27 10:23:00
5:44 AM,8.6,5.0,85,30.43,7.0,Calm,Calm,-,N/A,,Scattered Clouds,0,2013-01-27 10:44:00
6:03 AM,6.8,3.2,85,30.43,7.0,Calm,Calm,-,N/A,,Scattered Clouds,0,2013-01-27 11:03:00
6:24 AM,8.6,6.8,92,30.43,10.0,Calm,Calm,-,N/A,,Mostly Cloudy,0,2013-01-27 11:24:00
6:44 AM,12.2,10.4,92,30.45,10.0,Calm,Calm,-,N/A,,Overcast,0,2013-01-27 11:44:00
7:03 AM,12.2,10.4,92,30.47,10.0,Calm,Calm,-,N/A,,Mostly Cloudy,0,2013-01-27 12:03:00
7:24 AM,10.4,8.6,92,30.44,10.0,SE,5.8,-,N/A,,Scattered Clouds,130,2013-01-27 12:24:00
7:44 AM,10.4,8.6,92,30.45,10.0,Calm,Calm,-,N/A,,Clear,0,2013-01-27 12:44:00
8:03 AM,8.6,6.8,92,30.44,10.0,SSE,4.6,-,N/A,,Clear,150,2013-01-27 13:03:00
8:24 AM,12.2,10.4,92,30.47,10.0,NE,4.6,-,N/A,,Clear,50,2013-01-27 13:24:00
8:43 AM,12.2,10.4,92,30.47,10.0,East,4.6,-,N/A,,Clear,100,2013-01-27 13:43:00
9:03 AM,14.0,10.4,86,30.46,10.0,ESE,4.6,-,N/A,,Clear,110,2013-01-27 14:03:00
9:24 AM,14.0,12.2,93,30.47,10.0,East,3.5,-,N/A,,Clear,100,2013-01-27 14:24:00
9:43 AM,17.6,14.0,86,30.46,10.0,ESE,5.8,-,N/A,,Clear,120,2013-01-27 14:43:00
10:03 AM,19.4,14.0,80,30.47,10.0,ESE,6.9,-,N/A,,Clear,120,2013-01-27 15:03:00
10:24 AM,21.2,14.0,74,30.46,10.0,SE,6.9,-,N/A,,Clear,130,2013-01-27 15:24:00
10:43 AM,23.0,14.0,68,30.46,10.0,SE,8.1,-,N/A,,Clear,130,2013-01-27 15:43:00
11:03 AM,24.8,15.8,69,30.47,10.0,SE,6.9,-,N/A,,Clear,130,2013-01-27 16:03:00
11:24 AM,26.6,15.8,64,30.46,10.0,SSE,10.4,-,N/A,,Clear,150,2013-01-27 16:24:00
11:43 AM,26.6,17.6,69,30.45,10.0,SSE,8.1,-,N/A,,Clear,150,2013-01-27 16:43:00
12:03 PM,28.4,17.6,64,30.43,10.0,SE,11.5,-,N/A,,Clear,140,2013-01-27 17:03:00
12:24 PM,28.4,17.6,64,30.42,10.0,SSE,10.4,-,N/A,,Clear,150,2013-01-27 17:24:00
12:43 PM,30.2,19.4,64,30.41,10.0,SE,8.1,-,N/A,,Clear,140,2013-01-27 17:43:00
1:04 PM,30.2,19.4,64,30.40,10.0,SSE,6.9,-,N/A,,Scattered Clouds,150,2013-01-27 18:04:00
1:24 PM,30.2,19.4,64,30.40,10.0,SSE,5.8,-,N/A,,Scattered Clouds,150,2013-01-27 18:24:00
1:43 PM,32.0,19.4,60,30.39,10.0,South,6.9,-,N/A,,Scattered Clouds,180,2013-01-27 18:43:00
2:04 PM,32.0,19.4,60,30.37,10.0,SSE,6.9,-,N/A,,Scattered Clouds,160,2013-01-27 19:04:00
2:24 PM,32.0,21.2,64,30.37,10.0,South,5.8,-,N/A,,Clear,180,2013-01-27 19:24:00
2:43 PM,32.0,21.2,64,30.35,10.0,SSE,5.8,-,N/A,,Clear,150,2013-01-27 19:43:00
3:04 PM,32.0,21.2,64,30.35,10.0,SSE,9.2,-,N/A,,Scattered Clouds,160,2013-01-27 20:04:00
3:23 PM,32.0,21.2,64,30.34,10.0,SE,8.1,-,N/A,,Clear,140,2013-01-27 20:23:00
3:43 PM,32.0,21.2,64,30.33,10.0,SE,9.2,-,N/A,,Clear,140,2013-01-27 20:43:00
4:04 PM,32.0,21.2,64,30.32,10.0,ESE,8.1,-,N/A,,Scattered Clouds,120,2013-01-27 21:04:00
4:23 PM,32.0,21.2,64,30.32,10.0,SE,8.1,-,N/A,,Clear,140,2013-01-27 21:23:00
4:43 PM,32.0,21.2,64,30.32,10.0,SSE,10.4,-,N/A,,Scattered Clouds,150,2013-01-27 21:43:00
5:04 PM,32.0,21.2,64,30.33,10.0,SSE,8.1,-,N/A,,Overcast,150,2013-01-27 22:04:00
5:23 PM,32.0,21.2,64,30.31,10.0,ESE,9.2,-,N/A,,Overcast,120,2013-01-27 22:23:00
5:43 PM,32.0,21.2,64,30.31,10.0,SE,5.8,-,N/A,,Overcast,130,2013-01-27 22:43:00
6:04 PM,32.0,21.2,64,30.31,10.0,SE,6.9,-,N/A,,Overcast,130,2013-01-27 23:04:00
6:23 PM,32.0,23.0,69,30.31,10.0,ESE,8.1,-,N/A,,Overcast,120,2013-01-27 23:23:00
6:43 PM,32.0,23.0,69,30.30,10.0,ESE,8.1,-,N/A,,Overcast,120,2013-01-27 23:43:00
7:04 PM,32.0,23.0,69,30.30,10.0,ESE,10.4,-,N/A,,Overcast,110,2013-01-28 00:04:00
7:23 PM,32.0,23.0,69,30.28,10.0,ESE,10.4,-,N/A,,Overcast,120,2013-01-28 00:23:00
7:43 PM,32.0,23.0,69,30.27,10.0,ESE,10.4,-,N/A,,Overcast,120,2013-01-28 00:43:00
8:04 PM,32.0,23.0,69,30.27,10.0,SE,9.2,-,N/A,,Overcast,130,2013-01-28 01:04:00
8:23 PM,32.0,23.0,69,30.27,10.0,ESE,8.1,-,N/A,,Overcast,120,2013-01-28 01:23:00
8:44 PM,32.0,21.2,64,30.31,10.0,Calm,Calm,-,N/A,,Overcast,0,2013-01-28 01:44:00
9:23 PM,32.0,23.0,69,30.30,10.0,SE,3.5,-,N/A,Snow,Light Snow,130,2013-01-28 02:23:00
9:43 PM,32.0,23.0,69,30.29,10.0,SE,4.6,-,N/A,,Overcast,140,2013-01-28 02:43:00
10:04 PM,32.0,23.0,69,30.28,7.0,SE,5.8,-,N/A,,Overcast,140,2013-01-28 03:04:00
10:23 PM,32.0,26.6,80,30.27,5.0,SE,8.1,-,N/A,,Overcast,140,2013-01-28 03:23:00
10:43 PM,32.0,26.6,80,30.24,5.0,SE,12.7,-,N/A,,Overcast,140,2013-01-28 03:43:00
11:04 PM,32.0,26.6,80,30.23,5.0,SSE,11.5,-,N/A,,Overcast,150,2013-01-28 04:04:00
11:23 PM,32.0,28.4,87,30.23,5.0,SE,9.2,-,0.01,,Overcast,140,2013-01-28 04:23:00
11:44 PM,32.0,28.4,87,30.21,4.0,SSE,9.2,-,0.02,,Overcast,150,2013-01-28 04:44:00